Retour au catalogue

SL-3 R/B

ActifPO
NORAD 7575·ROCKET BODY·🇷🇺 Russia

Lancé Dec 17, 1974 depuis Plesetsk Cosmodrome

Loading…

Prochains Passages (prochaines 24 heures)

TLE

FraisSource: Space-Track

Époque: Sep 14, 2026, 05:23 UTC

1 07575U 74099B   26257.22479965 -.00000096  00000-0 -59515-4 0  9995
2 07575  81.2419 261.6963 0050661  57.6195 302.9865 14.11589710662548

Suivez SL-3 R/B en temps réel avec AllMySat

Download on the App Store